GW2235 Weather Reports


time (UTC)temp
F
wind
direction
speed
knots
gust
knots
rain 1hr
in
rain 24hr
in
rain mn
in
humidity
%
barometer
mb
20260507020004 46 294 2.6 7.8 0.00 0.44 0.44 92 1012.0
20260507014502 46 343 2.6 6.1 0.00 0.44 0.44 93 1011.9
20260507013002 46 279 1.7 3.5 0.00 0.44 0.44 93 1011.9
20260507011503 46 272 2.6 7.8 0.00 0.44 0.44 93 1011.7
20260507010004 47 322 4.3 12.2 0.00 0.44 0.44 93 1011.6
20260507004502 47 269 3.5 8.7 0.00 0.44 0.44 94 1011.3
20260507003005 47 315 6.1 13.9 0.00 0.44 0.44 94 1011.0
20260507001505 47 343 2.6 10.4 0.00 0.44 0.44 93 1010.9
20260507000006 47 306 5.2 11.3 0.00 0.44 0.44 93 1010.5
20260506234502 48 319 7.8 13.9 0.03 0.44 0.44 93 1010.1
20260506233003 48 320 4.3 12.2 0.03 0.44 0.44 93 1010.1
20260506231459 49 308 5.2 13.9 0.03 0.44 0.44 92 1009.8
20260506230002 49 333 7.0 13.0 0.03 0.44 0.44 91 1009.4
20260506224501 50 302 6.1 11.3 0.00 0.41 0.41 90 1009.1
20260506223002 52 341 7.0 11.3 0.00 0.41 0.41 89 1008.6
20260506221502 55 330 7.0 15.6 0.00 0.41 0.41 86 1008.3
20260506220006 60 236 2.6 9.6 0.00 0.41 0.41 89 1007.7
20260506214502 60 238 1.7 6.1 0.00 0.41 0.41 89 1007.5
20260506213002 60 139 2.6 6.1 0.00 0.41 0.41 89 1007.4
20260506210004 60 133 3.5 7.8 0.00 0.41 0.41 91 1007.0
20260506204501 60 192 3.5 7.8 0.01 0.41 0.41 93 1006.9
20260506203000 60 199 2.6 5.2 0.01 0.41 0.41 94 1006.9
20260506201501 59 167 0.9 6.1 0.01 0.41 0.41 95 1006.9
20260506194508 59 146 0.0 1.7 0.00 0.40 0.40 96 1007.2
20260506193000 58 146 0.0 1.7 0.00 0.40 0.40 96 1007.5
20260506191500 58 146 0.0 0.0 0.00 0.40 0.40 96 1007.6
20260506190004 58 146 0.9 3.5 0.00 0.40 0.40 96 1007.6
20260506184459 58 146 0.9 5.2 0.02 0.40 0.40 96 1007.7
20260506183001 58 159 0.9 6.1 0.02 0.40 0.40 96 1007.6
20260506181459 58 107 0.9 5.2 0.03 0.40 0.40 96 1007.9
20260506174459 58 157 0.0 6.1 0.03 0.38 0.38 95 1007.9
20260506173000 57 175 1.7 5.2 0.03 0.38 0.38 95 1007.9
20260506171502 57 128 1.7 6.1 0.03 0.37 0.37 95 1008.0
20260506170007 57 182 1.7 5.2 0.04 0.37 0.37 95 1007.9
20260506164503 57 145 1.7 8.7 0.02 0.35 0.35 95 1007.7
20260506163003 57 159 2.6 8.7 0.04 0.35 0.35 95 1007.8
20260506160005 57 173 0.9 5.2 0.11 0.33 0.33 95 1008.0
20260506154459 57 183 0.9 6.1 0.14 0.33 0.33 95 1008.1
20260506151502 57 116 0.9 7.0 0.13 0.28 0.28 94 1008.6
20260506150004 58 135 0.9 4.3 0.08 0.21 0.21 94 1008.4
20260506144502 58 173 0.0 6.1 0.08 0.19 0.19 94 1008.4
20260506141502 58 156 0.9 7.0 0.09 0.15 0.15 93 1008.6
20260506140005 58 185 0.9 4.3 0.09 0.13 0.13 93 1008.9
20260506134500 58 185 0.0 5.2 0.09 0.11 0.11 92 1009.0
20260506133002 58 185 0.0 0.0 0.08 0.09 0.09 91 1009.2
20260506131501 58 185 0.9 2.6 0.06 0.06 0.06 90 1009.3
20260506130002 58 185 1.7 7.0 0.04 0.04 0.04 88 1009.5
20260506124500 59 168 0.9 7.0 0.02 0.02 0.02 86 1009.4
20260506123000 59 175 2.6 9.6 0.01 0.01 0.01 83 1009.0
20260506121501 60 195 0.9 7.8 0.00 0.00 0.00 80 1009.1
20260506120005 60 146 2.6 9.6 0.00 0.00 0.00 78 1009.1
20260506114459 60 190 1.7 9.6 0.00 0.00 0.00 76 1009.0
20260506111501 60 155 0.0 4.3 0.00 0.00 0.00 74 1008.6
20260506110003 60 155 0.0 5.2 0.00 0.00 0.00 72 1008.7
20260506104500 60 155 0.9 7.0 0.00 0.00 0.00 72 1008.4
20260506102958 59 205 0.0 3.5 0.00 0.00 0.00 72 1008.0
20260506101501 59 205 0.0 0.0 0.00 0.00 0.00 72 1008.1
20260506100005 58 205 0.0 0.0 0.00 0.00 0.00 71 1008.1
20260506094500 58 205 0.0 0.0 0.00 0.00 0.00 72 1008.3
20260506093001 58 205 0.0 0.0 0.00 0.00 0.00 71 1008.4
20260506091459 58 205 0.0 0.0 0.00 0.00 0.00 70 1008.4
20260506084501 60 205 0.0 2.6 0.00 0.00 0.00 66 1008.5
20260506083003 61 198 0.9 3.5 0.00 0.00 0.00 64 1008.5
20260506081502 61 198 0.0 4.3 0.00 0.00 0.00 61 1008.5
20260506072959 62 153 0.0 4.3 0.00 0.00 0.00 56 1008.5
20260506071502 63 153 0.9 5.2 0.00 0.00 0.00 55 1008.9
20260506061459 62 257 0.9 5.2 0.00 0.00 0.00 55 1009.3
20260506044504 55 166 0.0 6.1 0.00 0.00 0.00 73 1009.9
20260506043004 55 164 0.0 0.0 0.00 0.00 0.00 71 1010.0
20260506041502 56 164 0.0 4.3 0.00 0.00 0.00 73 1010.0
20260506040006 56 164 0.0 0.0 0.00 0.00 0.00 72 1010.1
20260506034502 57 164 0.0 0.0 0.00 0.00 0.00 71 1010.2
20260506031504 61 164 0.0 0.0 0.00 0.00 0.00 62 1009.9
20260506030005 62 164 0.0 1.7 0.00 0.00 0.00 55 1009.8
20260506024502 65 164 0.0 4.3 0.00 0.00 0.00 51 1009.8
20260506023003 66 181 0.0 2.6 0.00 0.00 0.00 49 1010.0
20260506021502 67 181 0.0 1.7 0.00 0.00 0.00 47 1010.0